Overview Statistics Trail Chart Weather Telemetry Raw packets
 

This is the latest recevied weather packets stored in our database for station/object K4WCH. If no packets are shown the sender has not sent any weather packets the latest 10 day(s).

<< 44 45 46 47 48 49 50 >>
Time Temp. Humidity Pressure Rain* Wind** Luminosity Snow
1788364490 29.44° C 79% 1016.4 hPa 0 mm - 166 W/m² -
1788364184 31.11° C 76% 1016.5 hPa 0 mm - 292 W/m² -
1788363880 31.67° C 70% 1016.4 hPa 0 mm - 308 W/m² -
1788363579 31.67° C 70% 1016.2 hPa 0 mm - 888 W/m² -
1788363278 31.67° C 68% 1016.3 hPa 0 mm - 593 W/m² -
1788362974 31.67° C 67% 1016.4 hPa 0 mm - 923 W/m² -
1788362669 31.11° C 71% 1016.7 hPa 0 mm - 838 W/m² -
1788362365 31.11° C 71% 1016.5 hPa 0 mm - 699 W/m² -
1788362061 31.67° C 73% 1016.4 hPa 0 mm - 888 W/m² -
1788361760 31.67° C 69% 1016.4 hPa 0 mm - 975 W/m² -
1788361457 30.56° C 75% 1016.4 hPa 0 mm - 299 W/m² -
1788361156 30.56° C 75% 1016.7 hPa 0 mm - 299 W/m² -
1788360852 30.56° C 75% 1016.7 hPa 0 mm - 299 W/m² -
1788360547 30.56° C 75% 1016.6 hPa 0 mm - 299 W/m² -
1788360243 31.11° C 73% 1016.6 hPa 0 mm - 756 W/m² -
1788359943 30° C 73% 1016.6 hPa 0 mm - 741 W/m² -
1788359637 30° C 73% 1016.4 hPa 0 mm - 741 W/m² -
1788359333 30.56° C 74% 1016.4 hPa 0 mm - 256 W/m² -
1788359029 30.56° C 75% 1016.4 hPa 0 mm - 554 W/m² -
1788358724 30° C 79% 1016.4 hPa 0 mm - 530 W/m² -
1788358420 30° C 76% 1016.4 hPa 0 mm - 223 W/m² -
1788358119 30° C 76% 1016.3 hPa 0 mm - 681 W/m² -
1788357814 30° C 78% 1016.3 hPa 0 mm - 669 W/m² -
1788357529 30° C 76% 1016.4 hPa 0 mm - 606 W/m² -
1788357210 29.44° C 80% 1016.3 hPa 0 mm - 570 W/m² -

* Rain latest hour (hover to see other rain measurements)
** Current wind speed in m/s (hover to see current wind gust speed)